Location: Krakow
(50.0830°N, 19.9170°E)
Time: 19:25:18
(UTC+01:00)

Transit 2A - Pass Details

Date: 12 February 2023
Orbit: 591 x 964 km, 66.7° (Epoch: 21 March)

Event Time Altitude Azimuth Distance (km) Brightness Sun altitude
Rises 19:09:16 0° 306° (NW) 3,329 10.3 -22.3°
Reaches altitude 10° 19:12:43 10° 329° (NNW) 2,476 9.1 -22.9°
Maximum altitude 19:16:06 16° 5° (N) 2,168 8.3 -23.4°
Enters shadow 19:18:04 14° 27° (NNE) 2,327 8.3 -23.7°
Drops below altitude 10° 19:19:37 10° 41° (NE) 2,607 - -24.0°
Sets 19:23:25 0° 63° (ENE) 3,602 - -24.6°
